Renat Huseynov

Scout - Qarabag
3 Dez 2028
Sonntag
Verarbeitung

Persönlichkeit

Anpassungsfähigkeit (19) Ehrgeiz (6) Kontroverse (16) Loyalität (14) Druck (3) Professionalität (11) Fairness (16) Temperament (12)

Profil

Trainerstil Demokratisch
Lizenz Kontinentale Pro
Entschlossenheit 7
Menschenführung 4
Motivation 11
Disziplin 6
Arbeitszufriedenheit
100%
Ermüdung
0%
Rolle Scout
Gehalt 65.3K p/W
Vertrag 14.03.2029

Leistung

Verhalten Gut
Trainingseffektivität
38%
Spielerentwicklung
30%
Verletzungsprävention
60%
Taktische Umsetzung
25%

Letzte Ereignisse

Spieler begutachtet jetzt
Spieler begutachtet jetzt
Spieler begutachtet jetzt
Nahm an einer Scouting-Besprechung teil jetzt
Spieler begutachtet jetzt
Spieler begutachtet 7T her
Spieler begutachtet 7T her
Spieler begutachtet 7T her

Aktuell beobachtet

287
Spieler Verein Status Fähigkeit Vertrauen Beobachtet Zuletzt beobachtet Letzte Stimme
Brian De Keersmaecker Oxford United Aktiv 127 / 138 40% 4 02.12.2028 -
Ryan Yates Mansfield Town Aktiv 143 / 141 40% 3 02.12.2028 -
Juan Brunetta Olympiacos Aktiv 143 / 128 40% 1 29.11.2028 -
Ki-Jana Hoever Sparta Prague Aktiv 140 / 128 40% 2 28.11.2028 -
Femi Seriki Sheffield United Aktiv 142 / 126 40% 1 28.11.2028 -
Lautaro Morales Lanús Aktiv 135 / 144 40% 4 27.11.2028 -
Carlos Marín Albacete Aktiv 137 / 134 40% 2 27.11.2028 -
Patrick Roberts Birmingham Aktiv 134 / 136 40% 1 27.11.2028 -
Tristan Crama Wycombe Wanderers Aktiv 139 / 145 40% 1 25.11.2028 -
Franco Israel Hellas Verona Aktiv 127 / 131 40% 2 24.11.2028 -
Xavier Dziekoński Slask Aktiv 137 / 131 40% 2 24.11.2028 -
Amir Saipi Mallorca Aktiv 144 / 136 40% 2 23.11.2028 -
Jacopo Seghetti Empoli Aktiv 156 / 127 40% 2 23.11.2028 -
Daichi Kamada Luton Town Aktiv 162 / 137 40% 3 21.11.2028 -
Fredrik Sjøvold Bodo/Glimt Aktiv 123 / 148 40% 2 21.11.2028 -
Freddie Woodman Arsenal Aktiv 150 / 141 40% 2 20.11.2028 -
Joe Gauci Leeds United Aktiv 120 / 139 40% 1 20.11.2028 -
Florian Müller SC Freiburg Aktiv 153 / 122 40% 2 18.11.2028 -
Moisés Ramírez Volos NPS Aktiv 128 / 121 40% 1 18.11.2028 -
Evgeny Latyshonok Nizhniy Novgorod Aktiv 139 / 140 40% 4 17.11.2028 -
Balázs Tóth Blackburn Rovers Aktiv 150 / 149 40% 1 17.11.2028 -
Theo Sander Stade Rennais Aktiv 136 / 134 40% 1 16.11.2028 -
Mateo Pellegrino Fiorentina Aktiv 131 / 155 40% 5 15.11.2028 -
Josh Doig Avellino Aktiv 163 / 146 40% 1 14.11.2028 -
Alessandro Bianco Spartak Moscow Aktiv 132 / 143 40% 1 14.11.2028 -
Tom Davies Barnet Aktiv 128 / 153 40% 1 13.11.2028 -
Angelo Fulgini Al-Khaleej Aktiv 127 / 133 40% 1 13.11.2028 -
Chiquinho Leixões Aktiv 153 / 124 40% 3 11.11.2028 -
Ianis Hagi Alanyaspor Aktiv 125 / 138 40% 4 11.11.2028 -
Jaminton Campaz Rosario Central Aktiv 138 / 135 40% 1 10.11.2028 -
Saša Lukić Utrecht Aktiv 145 / 145 40% 2 09.11.2028 -
Marcos López Gimnasia La Plata Aktiv 141 / 130 40% 1 09.11.2028 -
Marek Rodák Al-Hilal Aktiv 149 / 138 40% 2 08.11.2028 -
Maxim Borisko CSKA Moscow Aktiv 149 / 127 40% 2 08.11.2028 -
Rico Henry River Plate Aktiv 126 / 143 40% 3 07.11.2028 -
Roberto Piccoli Fiorentina Aktiv 127 / 131 40% 9 07.11.2028 -
Doğucan Haspolat Lokeren Aktiv 145 / 147 40% 1 07.11.2028 -
Viktor Johansson Bournemouth Aktiv 149 / 142 40% 1 04.11.2028 -
Boulaye Dia Lazio Aktiv 144 / 135 40% 1 01.11.2028 -
Ryoya Morishita Blackburn Rovers Aktiv 140 / 138 40% 1 31.10.2028 -
Gizo Mamageishvili Sturm Graz Aktiv 134 / 134 40% 2 30.10.2028 -
Alexandr Chernikov Krasnodar Aktiv 121 / 151 40% 2 30.10.2028 -
Che Adams Torino Abgelehnt 136 / 131 40% 1 29.10.2028 Mehr Infos nötig
Enrico Gallo Chamois Niortais Aktiv 134 / 136 40% 1 28.10.2028 -
Jaime Seoane Al-Faisaly Aktiv 150 / 149 40% 1 28.10.2028 -
Michael Baidoo Plymouth Argyle Aktiv 133 / 123 40% 1 28.10.2028 -
Semuel Pizzignacco Monza Aktiv 119 / 147 40% 4 25.10.2028 -
Matthew Cox Rotherham United Aktiv 119 / 120 40% 1 25.10.2028 -
Nikita Kokarev Spartak Moscow Aktiv 119 / 149 40% 1 24.10.2028 -
Adrian Šemper Al-Fateh Aktiv 143 / 148 40% 4 20.10.2028 -
Jacob Widell Zetterström Stoke City Aktiv 154 / 126 40% 2 20.10.2028 -
Saldanha Al Wasl Aktiv 132 / 144 40% 2 19.10.2028 -
Franco Petroli Lanús Aktiv 131 / 132 40% 1 18.10.2028 -
Chuchu Ramírez Braga Aktiv 122 / 126 40% 1 15.10.2028 -
Unai Hernández Al-Ittihad Aktiv 143 / 128 40% 1 10.10.2028 -
Luis Chávez Dinamo Moscow Aktiv 147 / 151 40% 1 09.10.2028 -
Tobias Lawal Twente Aktiv 140 / 126 40% 1 07.10.2028 -
Devis Vásquez AS Roma Aktiv 122 / 148 40% 1 06.10.2028 -
Denis Adamov Zenit Aktiv 132 / 141 40% 2 05.10.2028 -
Tete Morente Elche Aktiv 126 / 124 40% 2 05.10.2028 -
Aníbal Moreno River Plate Aktiv 151 / 146 40% 1 04.10.2028 -
Orazio Messina Torino Aktiv 131 / 145 40% 1 02.10.2028 -
Christian Früchtl Red Bull Salzburg Aktiv 139 / 127 40% 3 29.09.2028 -
Jonathan Fischer FC Metz Aktiv 153 / 150 40% 2 28.09.2028 -
Enis Ujkaj Pescara Aktiv 117 / 124 40% 1 28.09.2028 -
Vladislav Torop CSKA Moscow Aktiv 142 / 134 40% 1 27.09.2028 -
Stefano Turati Bari Aktiv 149 / 139 40% 1 27.09.2028 -
Victor Torp Bristol Rovers Aktiv 125 / 123 40% 8 24.09.2028 -
Ivan Oblyakov CSKA Moscow Aktiv 130 / 150 40% 1 24.09.2028 -
Kirian Barcelona Aktiv 156 / 153 40% 1 22.09.2028 -
Riku Yamane Yokohama F. Marinos Aktiv 136 / 129 40% 1 22.09.2028 -
Atsuki Ito Bolton Wanderers Aktiv 116 / 130 40% 1 20.09.2028 -
Ronaldo Krasnodar Aktiv 149 / 138 40% 1 20.09.2028 -
Christian Carracedo Betis Aktiv 118 / 150 40% 1 18.09.2028 -
Gonzalo Plata Nacional Aktiv 125 / 153 40% 4 15.09.2028 -
Sydie Peck Swindon Town Aktiv 146 / 150 40% 1 14.09.2028 -
Filippo Rinaldi Parma Aktiv 145 / 133 40% 3 12.09.2028 -
Dmitry Barinov CSKA Moscow Aktiv 145 / 143 40% 1 12.09.2028 -
Eliot Matazo Oldham Athletic Aktiv 119 / 138 40% 1 12.09.2028 -
Emil Audero Como Aktiv 132 / 122 40% 1 12.09.2028 -
Zaydou Youssouf Al-Fateh Aktiv 128 / 152 40% 1 08.09.2028 -
Josh Cullen Walsall Aktiv 152 / 144 40% 1 05.09.2028 -
Lewis Bate Stockport County Aktiv 122 / 140 40% 1 05.09.2028 -
Marius Marin Al Nasr Aktiv 134 / 132 40% 2 01.09.2028 -
Ben Sheaf Wrexham Aktiv 127 / 133 40% 1 01.09.2028 -
Diego Callai Sporting CP Aktiv 144 / 131 40% 1 30.08.2028 -
Teddy Sharman-Lowe Barnsley Aktiv 130 / 122 40% 1 29.08.2028 -
Breno Almeida Neftchi Aktiv 122 / 99 51% 1 28.08.2028 -
Iván Morante Girona Aktiv 132 / 120 40% 1 25.08.2028 -
Nahuel Tenaglia Banfield Aktiv 139 / 125 40% 1 25.08.2028 -
Demarai Gray Birmingham Aktiv 125 / 146 40% 1 24.08.2028 -
Alan Lescano Argentinos Juniors Aktiv 144 / 149 40% 2 23.08.2028 -
Uriel Antuna Dinamo Moscow Aktiv 124 / 121 40% 1 23.08.2028 -
Fabricio Iacovich Girona Aktiv 120 / 119 40% 1 21.08.2028 -
Gabriel Słonina Reading Aktiv 118 / 148 40% 1 21.08.2028 -
Marco Pompetti Padova Aktiv 120 / 122 40% 2 15.08.2028 -
Eric Smith VfB Stuttgart Aktiv 143 / 147 40% 2 15.08.2028 -
Riccardo Gagno Vicenza Aktiv 116 / 120 40% 2 08.08.2028 -
Christian Walton Ipswich Town Aktiv 129 / 153 40% 1 08.08.2028 -
Sandi Lovrić Juve Stabia Aktiv 138 / 130 40% 1 05.08.2028 -
Renato Sanches Leiria Aktiv 132 / 142 40% 1 05.08.2028 -
Matteo Pessina Monza Aktiv 126 / 135 40% 2 04.08.2028 -
Gianluca Saro Foggia Aktiv 114 / 138 40% 2 03.08.2028 -
Joe Whitworth Wigan Athletic Aktiv 122 / 139 40% 1 03.08.2028 -
Martin Frese Hellas Verona Aktiv 135 / 145 40% 1 03.08.2028 -
Sam Proctor Salford City Aktiv 140 / 126 40% 2 01.08.2028 -
Artem Dovbyk Hellas Verona Aktiv 133 / 160 40% 8 01.08.2028 -
Will Mannion Charlton Athletic Aktiv 138 / 126 40% 1 30.07.2028 -
Alex Palmer Ipswich Town Aktiv 141 / 133 40% 1 30.07.2028 -
Abduvohid Ne'matov Nasaf Aktiv 146 / 118 40% 3 25.07.2028 -
Gaëtan Coucke Sampdoria Aktiv 143 / 145 40% 2 22.07.2028 -
Carlos Marín Albacete Verloren 120 / 128 40% 1 22.07.2028 -
Zakaria Aboukhlal Pescara Aktiv 137 / 149 40% 2 20.07.2028 -
Vladan Kovačević Norwich City Aktiv 118 / 114 40% 1 20.07.2028 -
Facundo Sanguinetti Banfield Aktiv 138 / 133 40% 1 20.07.2028 -
Nikola Vasilj Racing Club Verloren 152 / 152 40% 1 18.07.2028 -
Christian Walton Ipswich Town Verloren 137 / 122 40% 1 18.07.2028 -
Frank Onyeka Coventry City Aktiv 154 / 153 40% 1 12.07.2028 -
Florian Grillitsch Frosinone Aktiv 150 / 141 40% 1 10.07.2028 -
Lorenzo Ignacchiti Cesena Aktiv 127 / 142 40% 1 08.07.2028 -
Jonathan Klinsmann Cesena Aktiv 130 / 128 40% 4 01.07.2028 -
César Montes Lokomotiv Moscow Aktiv 121 / 135 40% 1 30.06.2028 -
Bruno Silva Gabala Aktiv 114 / 113 51% 1 06.06.2028 -
Freddy Vargas Neftchi Verloren 129 / 121 51% 1 02.06.2028 -
Fabián Correa Barranquilla Aktiv 84 / 106 40% 2 27.05.2028 -
Olivier Mambwa Young Boys Aktiv 123 / 104 40% 1 27.05.2028 -
Daniel Banjaqui Benfica Aktiv 116 / 123 40% 2 26.05.2028 -
Costantino Favasuli Catanzaro Aktiv 117 / 137 40% 1 26.05.2028 -
Seth Ridgeon Fulham Aktiv 111 / 95 40% 2 24.05.2028 -
Nicolò Moranduzzo Renate Aktiv 76 / 97 40% 1 24.05.2028 -
Marcus Ifill Crewe Alexandra Aktiv 129 / 121 40% 1 23.05.2028 -
Ivan Varfolomeev Lincoln City Aktiv 121 / 104 40% 1 23.05.2028 -
Jan Bürger Northampton Town Aktiv 112 / 133 40% 4 21.05.2028 -
Alessio Insignito Spezia Aktiv 89 / 126 40% 1 21.05.2028 -
Johnly Yfeko Exeter City Aktiv 119 / 126 40% 2 20.05.2028 -
Josh Nichols Oldham Athletic Aktiv 107 / 143 40% 3 19.05.2028 -
Jakub Adkonis Korona Aktiv 108 / 93 40% 2 16.05.2028 -
Hosea Michael Remo Stars Aktiv 76 / 111 40% 1 16.05.2028 -
Patrick Kelly Barnsley Aktiv 118 / 118 40% 1 16.05.2028 -
Stefano Di Mario Virtus Entella Aktiv 120 / 126 40% 1 14.05.2028 -
Baldovino Cimino Cosenza Aktiv 132 / 117 40% 1 14.05.2028 -
Charlie Webster Burton Albion Aktiv 130 / 130 40% 1 11.05.2028 -
Celías Ingenthron Platense Aktiv 115 / 124 40% 2 07.05.2028 -
Isaac Monnier FC Lorient Aktiv 104 / 95 40% 1 07.05.2028 -
Rhys Walters Port Vale Aktiv 92 / 119 40% 3 04.05.2028 -
Georgie Gent Barnsley Aktiv 114 / 108 40% 1 04.05.2028 -
Bruno Verrengia Vis Pesaro Aktiv 113 / 116 40% 1 02.05.2028 -
Maxim Radchenko Rostov Aktiv 97 / 92 40% 3 01.05.2028 -
Halam Loboa Sevilla Aktiv 137 / 146 40% 1 29.04.2028 -
Riquelme Thompson-Jones Accrington Stanley Aktiv 115 / 120 40% 2 28.04.2028 -
Jenson Jones Walsall Aktiv 88 / 102 40% 2 27.04.2028 -
Tobías Ramírez River Plate Aktiv 129 / 120 40% 4 23.04.2028 -
Jorthy Mokio ADO Den Haag Aktiv 127 / 139 40% 1 20.04.2028 -
Tyrique Mercera Groningen Aktiv 119 / 138 40% 1 18.04.2028 -
Ousmane Simpara Etoiles du Mande Aktiv 90 / 118 40% 1 17.04.2028 -
Andrea Bertoncini Triestina Aktiv 80 / 108 40% 2 15.04.2028 -
Jason Witsel PSV Aktiv 136 / 132 40% 1 13.04.2028 -
Martim Cunha Porto Aktiv 108 / 110 40% 5 09.04.2028 -
Miguel Figueiredo Benfica Aktiv 107 / 115 40% 1 07.04.2028 -
Makar Vysochenko Spartak Moscow Aktiv 76 / 91 40% 2 03.04.2028 -
Andrey Ivlev Nizhniy Novgorod Aktiv 106 / 117 40% 3 02.04.2028 -
Kelian Le Pironnec Mirandés Aktiv 80 / 106 40% 1 02.04.2028 -
Bernardo Lima Porto Aktiv 92 / 113 40% 3 28.03.2028 -
Victor Hernandez Santa Fe Aktiv 132 / 138 40% 2 28.03.2028 -
Gustavo Albarracín Alavés Aktiv 114 / 123 40% 1 26.03.2028 -
Othniël Raterink Cagliari Aktiv 106 / 116 40% 2 18.03.2028 -
Claudio Martey Pianese Aktiv 85 / 98 40% 1 13.03.2028 -
Avery Appiah Ajax Aktiv 105 / 136 40% 1 09.03.2028 -
Esquerdinha Notts County Aktiv 116 / 122 40% 1 11.02.2028 -
Jonny Shore New York City Aktiv 96 / 88 40% 4 06.02.2028 -
Colin Guske Orlando City Aktiv 106 / 101 40% 4 17.01.2028 -
Darnell Furlong Leyton Orient Aktiv 119 / 119 40% 1 28.12.2027 -
Aaron Collins Milton Keynes Dons Aktiv 129 / 136 40% 1 27.12.2027 -
Joao Ortiz Portland Timbers Aktiv 110 / 133 40% 1 25.12.2027 -
Ilja Samoshnikov Spartak Moscow Aktiv 129 / 129 40% 2 23.12.2027 -
Luca Gemello Perugia Aktiv 124 / 125 40% 1 22.12.2027 -
Facundo Altamirano San Lorenzo Aktiv 108 / 116 40% 1 22.12.2027 -
Njabulo Blom Pakhtakor Aktiv 133 / 121 40% 4 17.12.2027 -
Nazmi Gripshi Rubin Aktiv 117 / 106 40% 1 17.12.2027 -
Joel Ezra Enyimba Aktiv 82 / 89 40% 1 17.12.2027 -
Gabriel Díaz Patronato Aktiv 102 / 100 40% 1 15.12.2027 -
Koffi Kouao Neftchi Aktiv 132 / 140 40% 6 07.12.2027 -
Uerdi Mara Gabala Abgelehnt 133 / 108 40% 1 06.12.2027 Mehr Infos nötig
Ivan Lomaev Ufa Aktiv 113 / 109 40% 7 03.12.2027 -
Matias Siltanen Malmo FF Aktiv 114 / 145 40% 3 28.11.2027 -
Leandro Antunes Al-Riyadh Aktiv 111 / 118 40% 1 27.11.2027 -
Yury Oyarzo Racing Aktiv 98 / 106 40% 1 23.11.2027 -
Hugo Rojas Instituto Aktiv 100 / 112 40% 1 23.11.2027 -
Jon Esenga IF Elfsborg Aktiv 84 / 120 40% 2 20.11.2027 -
Agustín Obregón River Plate Aktiv 118 / 111 40% 1 20.11.2027 -
Daniel Barrea Godoy Cruz Aktiv 106 / 137 40% 2 19.11.2027 -
Santiago Fernández Talleres Aktiv 104 / 135 40% 1 18.11.2027 -
Igor Jesus Los Angeles Football Club Aktiv 137 / 134 40% 2 14.11.2027 -
Igor Dmitriev Spartak Moscow Aktiv 137 / 123 40% 1 14.11.2027 -
Vladimir Nazarov Pakhtakor Aktiv 105 / 99 40% 2 10.11.2027 -
Armando Méndez Newell's Old Boys Aktiv 140 / 118 40% 3 06.11.2027 -
Maxim Petrov Baltika Aktiv 112 / 126 40% 2 05.11.2027 -
Renato Solís Sporting Cristal Aktiv 144 / 119 40% 1 01.11.2027 -
Franco Hanashiro Colegiales Aktiv 97 / 93 40% 1 29.10.2027 -
Mauricio Vera Bhayangkara Presisi Aktiv 107 / 100 40% 2 24.10.2027 -
Somtochuwku Ezenabo Kwara United Aktiv 88 / 102 40% 1 22.10.2027 -
Ivar Jenner Dewa United Aktiv 93 / 114 40% 1 21.10.2027 -
Henrique Carmo Sochi Aktiv 119 / 133 40% 1 14.10.2027 -
Sebastián Flores Ferro Carril Oeste Aktiv 116 / 110 40% 1 11.10.2027 -
Tomás Belmonte Boca Juniors Aktiv 132 / 119 40% 3 07.10.2027 -
Justin Haak LA Galaxy Aktiv 100 / 111 40% 1 06.10.2027 -
Samuele Perisan Reggiana Aktiv 135 / 125 40% 1 06.10.2027 -
Tim Iroegbunam Peterborough United Aktiv 140 / 143 40% 1 04.10.2027 -
Temirlan Anarbekov Kairat Aktiv 105 / 104 40% 3 30.09.2027 -
Ivan Oleinikov Krylya Sovetov Aktiv 114 / 111 40% 1 25.09.2027 -
Fernando Costanza Krylya Sovetov Aktiv 115 / 137 40% 1 24.09.2027 -
Hojiakbar Alijonov Pakhtakor Aktiv 123 / 129 40% 2 22.09.2027 -
Malcom Braida Boca Juniors Aktiv 114 / 112 40% 2 20.09.2027 -
Tiago Gordillo San Miguel Aktiv 92 / 102 40% 1 16.09.2027 -
Mathías de Ritis San Lorenzo Aktiv 110 / 101 40% 1 16.09.2027 -
Yuri Casermeiro Central Córdoba SdE Aktiv 112 / 106 40% 1 14.09.2027 -
Evgeny Staver Rubin Aktiv 102 / 106 40% 7 12.09.2027 -
Ilja Pomazun Spartak Moscow Aktiv 106 / 120 40% 1 09.09.2027 -
Anton Mitryushkin Lokomotiv Moscow Aktiv 113 / 118 40% 1 09.09.2027 -
Santiago Quiros Racing Club Aktiv 115 / 140 40% 1 06.09.2027 -
Chibueze Oputa Rangers International Aktiv 82 / 93 40% 1 05.09.2027 -
Hian Rincón Once Caldas Aktiv 96 / 94 40% 1 05.09.2027 -
Leandro Lozano Boca Juniors Aktiv 144 / 127 40% 1 01.09.2027 -
Juan Diego Perdomo Depor Aktiv 71 / 104 40% 2 30.08.2027 -
Siaka Sidibé Al Wasl Aktiv 121 / 124 40% 1 28.08.2027 -
Yann Bodiger Málaga Aktiv 133 / 138 40% 1 14.08.2027 -
Wilfried Kanga Al-Fateh Aktiv 131 / 114 40% 1 10.08.2027 -
Mohau Nkota Al-Ettifaq Aktiv 134 / 135 40% 2 04.08.2027 -
Franchu Basaksehir Aktiv 112 / 132 40% 1 02.08.2027 -
Kostas Galanopoulos Panathinaikos Aktiv 118 / 108 40% 1 30.07.2027 -
Peter Olayinka Al-Wehda Aktiv 120 / 115 40% 7 28.07.2027 -
Yassine Benzia Al-Qadisiyah Aktiv 133 / 134 40% 1 19.07.2027 -
Ugochukwu Iwu Rubin Aktiv 121 / 138 40% 1 12.07.2027 -
Cedric Teuchert Borussia Mönchengladbach Aktiv 119 / 132 40% 1 08.07.2027 -
Joaquín Almería Aktiv 116 / 108 40% 1 03.07.2027 -
Álex Muñoz Almería Aktiv 118 / 126 40% 1 02.07.2027 -
Jota Silva Olympiacos Aktiv 118 / 118 40% 5 14.06.2027 -
Daniil Ustimenko Tobol Aktiv 129 / 116 40% 1 27.05.2027 -
Mats Egbring Heerenveen Aktiv 85 / 90 40% 1 21.05.2027 -
Guilherme Pires Sporting CP Aktiv 83 / 115 40% 1 09.05.2027 -
Maycon Cleiton Zira Aktiv 102 / 94 40% 3 07.05.2027 -
Riley Owen Stevenage Aktiv 120 / 89 40% 3 07.05.2027 -
Gonçalo Oliveira Benfica Aktiv 92 / 97 40% 1 07.05.2027 -
Islam Imamov SKA Khabarovsk Aktiv 91 / 97 40% 2 25.04.2027 -
Bogdan Ovsyannikov Orenburg Aktiv 98 / 118 40% 4 22.04.2027 -
Timur Akmurzin Dinamo Bryansk Aktiv 104 / 96 40% 3 18.04.2027 -
Rostislav Soldatenko Torpedo Moscow Aktiv 90 / 96 40% 7 11.04.2027 -
Rustam Yatimov Rostov Verloren 121 / 119 40% 3 08.04.2027 -
Samuele di Benedetto Twente Aktiv 120 / 118 40% 2 03.04.2027 -
Tiago Freitas Benfica Aktiv 122 / 132 40% 2 02.04.2027 -
Leandro Martins Benfica Aktiv 105 / 110 40% 1 30.03.2027 -
Wessel Kuhn PSV Aktiv 102 / 112 40% 2 25.03.2027 -
Kiani Inge Groningen Aktiv 105 / 99 40% 2 25.03.2027 -
Petr Kosarevskiy Sibir Aktiv 87 / 108 40% 3 11.03.2027 -
Kyllian Antonio RC Lens Aktiv 87 / 113 40% 1 05.03.2027 -
Nikita Yanovich Tyumen Aktiv 101 / 77 40% 3 25.02.2027 -
Jaygo van Ommeren Utrecht Aktiv 108 / 96 40% 1 24.02.2027 -
Filippo Manfrin Arzignano Aktiv 107 / 116 40% 2 23.02.2027 -
Kirill Glazunov Zenit Aktiv 96 / 97 40% 1 16.02.2027 -
Bade Aluko Leicester City Aktiv 123 / 102 40% 1 11.02.2027 -
Law McCabe Middlesbrough Aktiv 95 / 128 40% 1 04.02.2027 -
Mahir Mammadov AZAL Aktiv 89 / 91 40% 1 04.02.2027 -
Ilja Tuseev Chelyabinsk Aktiv 84 / 89 40% 4 21.01.2027 -
Daniel Vernattus Metalist Aktiv 73 / 90 40% 1 16.01.2027 -
Miodrag Pivaš Newcastle United Aktiv 115 / 101 40% 1 07.01.2027 -
Egor Bogomolskiy Zira Aktiv 99 / 89 51% 1 02.01.2027 -
Diogo Monteiro Tondela Aktiv 83 / 105 40% 1 01.01.2027 -
Pedro Rocha Juventude Aktiv 92 / 94 40% 2 28.12.2026 -
Konta Ismaily Aktiv 72 / 81 40% 1 25.12.2026 -
Oleh Bilyk Epicentr Aktiv 85 / 88 40% 2 21.12.2026 -
Samuel Nibombé Monaco Aktiv 103 / 122 40% 1 16.12.2026 -
Leonardo Marson Gubbio Aktiv 98 / 101 40% 1 14.12.2026 -
Illaijh de Ruijter ADO Den Haag Aktiv 114 / 138 40% 2 10.12.2026 -
Federico Valentini Forli Aktiv 79 / 93 40% 1 10.12.2026 -
Ignacio Ovando Rosario Central Aktiv 107 / 103 40% 1 09.12.2026 -
Timur Kraikov Sokol Aktiv 83 / 92 40% 3 06.12.2026 -
Stanislav Kleschuk Gomel Aktiv 89 / 75 40% 1 29.11.2026 -
Jan Paluska Slavia Prague Aktiv 121 / 109 40% 1 24.11.2026 -
Maxim Belov Dinamo Brest Aktiv 109 / 97 40% 1 22.11.2026 -
Josh Wynder Benfica Aktiv 94 / 120 40% 1 03.11.2026 -
Suhail Abdulla Al Wasl Aktiv 90 / 88 40% 1 26.10.2026 -
Fedor Lapoukhov Osasuna Aktiv 116 / 122 40% 1 07.10.2026 -
Samuel Brolin Kalmar FF Aktiv 127 / 119 40% 1 19.09.2026 -
Jannik Schuster Brentford Aktiv 97 / 119 40% 1 09.09.2026 -
Ezra Mayers West Ham United Aktiv 102 / 116 40% 1 09.09.2026 -
Thiago Dowd Racing Club Aktiv 77 / 79 40% 1 01.09.2026 -
Maximiliano Duarte Independiente Aktiv 100 / 88 40% 1 31.08.2026 -